Address 0xc43e77fe3053d9d34ad36de40694f425ffd9d9d9

 

Overview

Balance:
0.182834976264832768 BNB

BNB Value:
$61.88 (@ $338.47/BNB)
Txn Hash
Block
From
To
Value [Txn Fee]
0x3388503389b334c76dc794fd07490539510956d2aee719f36156896d80a0c59882589902021-06-13 10:26:481 hr 1 min ago0xc43e77fe3053d9d34ad36de40694f425ffd9d9d9OUT 0x92ef7fac0708fc3c49921907361429ec14cd8cb60 BNB0.0001482
0x57fbe869d81c2d801fa64060e76cc7c29b66f1f3a31cf410dc1a26ecc8c041da82582362021-06-13 9:47:531 hr 40 mins ago0xc43e77fe3053d9d34ad36de40694f425ffd9d9d9OUT 0x92ef7fac0708fc3c49921907361429ec14cd8cb60 BNB0.000274745
0xa0af6b4c38d7bd58a0ec1f3cacda3cc3c1ad440c5497a8c5096e75bdaaaeac8782580572021-06-13 9:38:561 hr 49 mins ago0xc43e77fe3053d9d34ad36de40694f425ffd9d9d9OUT 0x92ef7fac0708fc3c49921907361429ec14cd8cb60 BNB0.000427745
0x0b0c924f1f3bfd65f986e85dc28edf49204ddf8690a43d59af56d3dcc0380f3282560162021-06-13 7:55:283 hrs 33 mins ago0xc43e77fe3053d9d34ad36de40694f425ffd9d9d9OUT 0x92ef7fac0708fc3c49921907361429ec14cd8cb60 BNB0.000148
0xd3119ffbb71bbba80f13074abe92280f093e8a7d1a8a8e37363ba321c3452d6082555792021-06-13 7:33:343 hrs 55 mins ago0xc43e77fe3053d9d34ad36de40694f425ffd9d9d9OUT 0x92ef7fac0708fc3c49921907361429ec14cd8cb60 BNB0.000436075
0x14762caceebd95d05da172896d2b4cadb7d62bdb628bb7fe0c089ba8370cb43982554542021-06-13 7:27:194 hrs 1 min ago0xc43e77fe3053d9d34ad36de40694f425ffd9d9d9OUT 0x92ef7fac0708fc3c49921907361429ec14cd8cb60 BNB0.000413395
0xe0d165b50d6f7fd9218f5de763ac9299c73317b477b6de7a41c483a9372a865e82460002021-06-12 23:31:0811 hrs 57 mins ago0xc43e77fe3053d9d34ad36de40694f425ffd9d9d9OUT 0x92ef7fac0708fc3c49921907361429ec14cd8cb60 BNB0.001081192
0xd3bbacb08e675127a3778414d2c6d195c890039f643e51386fbb9b68a2ed35a382447962021-06-12 22:30:2712 hrs 58 mins ago0xc43e77fe3053d9d34ad36de40694f425ffd9d9d9OUT 0x92ef7fac0708fc3c49921907361429ec14cd8cb60 BNB0.00027543
0xda77bdfb045257065427051c4414fc13f86e11cd454ca45c0428f76bd19aa3be82438632021-06-12 21:42:3913 hrs 45 mins ago0xc43e77fe3053d9d34ad36de40694f425ffd9d9d9OUT 0x92ef7fac0708fc3c49921907361429ec14cd8cb60 BNB0.00014962
0xdab06e649cda96102c1c9a06264361bbbd107d922f006cc9bd7175ae16228a8982419952021-06-12 20:08:1115 hrs 20 mins ago0xc43e77fe3053d9d34ad36de40694f425ffd9d9d9OUT 0x92ef7fac0708fc3c49921907361429ec14cd8cb60 BNB0.00015134
0x85d1ff13061f9f7643917804cbf54ddd1c8e27576738604e75fd9fd5b1874da582350542021-06-12 14:19:1121 hrs 9 mins ago0xc43e77fe3053d9d34ad36de40694f425ffd9d9d9OUT 0x92ef7fac0708fc3c49921907361429ec14cd8cb60 BNB0.000415365
0x169679dbb1897c49202ceb97a9ac3c21eb2a699c7458b2d49aaf0529d719ee8082336642021-06-12 13:09:4122 hrs 18 mins ago0xc43e77fe3053d9d34ad36de40694f425ffd9d9d9OUT 0x92ef7fac0708fc3c49921907361429ec14cd8cb60 BNB0.00182828
0x1070371e2d2248d8dd78256d9a11ae2acbe1994e3dbd712054c7d4400481411a82314862021-06-12 11:20:281 day 8 mins ago0xc43e77fe3053d9d34ad36de40694f425ffd9d9d9OUT 0x92ef7fac0708fc3c49921907361429ec14cd8cb60 BNB0.0001482
0xc99903dd69ef4125a8bf6ce34316a955f556787abc15dfcd96cc6cd0b13c2dba82310162021-06-12 10:56:581 day 31 mins ago0xc43e77fe3053d9d34ad36de40694f425ffd9d9d9OUT 0x92ef7fac0708fc3c49921907361429ec14cd8cb60 BNB0.000411525
0xfa660f93033c951bca5cb7a75d3698b4ae0b4e899c7659632a5f53b5483a724f82292712021-06-12 9:28:541 day 1 hr ago0xc43e77fe3053d9d34ad36de40694f425ffd9d9d9OUT 0x92ef7fac0708fc3c49921907361429ec14cd8cb60 BNB0.00014832
0xc11d598f333afd8e4db9ca546301dc47c9a3cad8fac306fa27fdbfc563dca85f82289942021-06-12 9:15:031 day 2 hrs ago0xc43e77fe3053d9d34ad36de40694f425ffd9d9d9OUT 0x92ef7fac0708fc3c49921907361429ec14cd8cb60 BNB0.00012322
0xfa685c4c7d9e0a55a18478a940670ebe708fd622ba2f67e40397226464638fd582287952021-06-12 9:05:061 day 2 hrs ago0xc43e77fe3053d9d34ad36de40694f425ffd9d9d9OUT 0x92ef7fac0708fc3c49921907361429ec14cd8cb60 BNB0.0001567764
0x39254ad30229f720682395617194d8f48e05027b39b1dca1bac3de10f1e8df7782287332021-06-12 9:02:001 day 2 hrs ago0xc43e77fe3053d9d34ad36de40694f425ffd9d9d9OUT 0x92ef7fac0708fc3c49921907361429ec14cd8cb60 BNB0.00015322
0x5ac58a44c63e18b0f22232dbe90fb02d448b607e4a09a58f5362e63a4b14d84682282552021-06-12 8:38:061 day 2 hrs ago0xc43e77fe3053d9d34ad36de40694f425ffd9d9d9OUT 0x92ef7fac0708fc3c49921907361429ec14cd8cb60 BNB0.00035525
0xde9315fdff3988a6d22d11365eae660a14fcea8213e03e1c2b9cdfd8c18d232482281112021-06-12 8:30:541 day 2 hrs ago0xc43e77fe3053d9d34ad36de40694f425ffd9d9d9OUT 0x92ef7fac0708fc3c49921907361429ec14cd8cb60 BNB0.008332568635
0x294bc64d2815f3d69dfc709f08583be744b04897235be2ea0c6fab800165783e82277582021-06-12 8:13:151 day 3 hrs ago0xc43e77fe3053d9d34ad36de40694f425ffd9d9d9OUT 0x92ef7fac0708fc3c49921907361429ec14cd8cb60 BNB0.00014492
0x35a88cb8ee63b785a283cae4eab4eb76c5645dac43d4ecd2c2963f8258f24ff582277252021-06-12 8:11:361 day 3 hrs ago0xc43e77fe3053d9d34ad36de40694f425ffd9d9d9OUT 0x92ef7fac0708fc3c49921907361429ec14cd8cb60 BNB0.00014646
0xd24574fc4870c5a21d25e7bb1565b863088670c899e49e03d31b25219f51314a82271982021-06-12 7:45:151 day 3 hrs ago0xc43e77fe3053d9d34ad36de40694f425ffd9d9d9OUT 0x92ef7fac0708fc3c49921907361429ec14cd8cb60 BNB0.0001494504
0x161a1e23b29acb50509d77b5f2bbdbc9ee7cab83f9dc4af71819938c4a39886782271792021-06-12 7:44:181 day 3 hrs ago0xc43e77fe3053d9d34ad36de40694f425ffd9d9d9OUT 0x92ef7fac0708fc3c49921907361429ec14cd8cb60 BNB0.00014834
0x21eeaae60d45149aa0ea22458b04732190136d21c5066cc32b925034e525631b82270282021-06-12 7:36:451 day 3 hrs ago0xc43e77fe3053d9d34ad36de40694f425ffd9d9d9OUT 0x92ef7fac0708fc3c49921907361429ec14cd8cb60 BNB0.0004080663
[ Download CSV Export 
Latest 5 internal transactions
Parent Txn Hash Block From To Value
0xd0c42d4bec0b564ea1b54a9d959a90ee0011eab113ac128bd3e8758643c0faa482265642021-06-12 7:13:311 day 4 hrs ago 0x92ef7fac0708fc3c49921907361429ec14cd8cb60xc43e77fe3053d9d34ad36de40694f425ffd9d9d90.100221704208087068 BNB
0x14d37970d3083b2a4da8ae89a9f1c20756bc78bc9ef4176ffdc3c1110f92336680189682021-06-05 1:45:258 days 9 hrs ago 0x92ef7fac0708fc3c49921907361429ec14cd8cb60xc43e77fe3053d9d34ad36de40694f425ffd9d9d90.100073083826269403 BNB
0xaee4afead4e55c0836b0b56bac1ebdbdcee2a3a765cbe3f1cec5aca3c0efe85d77672522021-05-27 7:13:0617 days 4 hrs ago 0x92ef7fac0708fc3c49921907361429ec14cd8cb60xc43e77fe3053d9d34ad36de40694f425ffd9d9d90.1073619941 BNB
0x9b407f0cebaa015859e475eb613c8d3747f2faa5620264e2ee07f3de22c4b46a77042622021-05-25 2:21:3119 days 9 hrs ago 0x92ef7fac0708fc3c49921907361429ec14cd8cb60xc43e77fe3053d9d34ad36de40694f425ffd9d9d90.100482666573573112 BNB
0x57dc7b34b9b5f1f1752fe1567d254c73367a59659e7a4721aeca9b6165f42dd475999682021-05-21 11:06:2323 days 22 mins ago 0x92ef7fac0708fc3c49921907361429ec14cd8cb60xc43e77fe3053d9d34ad36de40694f425ffd9d9d90.2 BNB
[ Download CSV Export 
Loading

Contract Name:
0 BNB

Compiler Version
0

Optimization Enabled:
0 BNB

Other Settings:
-NA-
Block Transaction Gas Used Reward
Age Block Fee Address BC Fee Address Voting Power Jailed Incoming
Block Uncle Number Difficulty Gas Used Reward
Loading
Loading
Make sure to use the "Vote Down" button for any spammy posts, and the "Vote Up" for interesting conversations.